カタログに戻る

STARLINK-32756

運用中通信VLEO
NORAD 62752·PAYLOAD·🇺🇸 United States

打ち上げ Jan 21, 2025 から Cape Canaveral Space Force Station

Loading…

次のパス (今後24時間)

TLE

最新Source: CelesTrak SupGP

元期: Sep 14, 2026, 21:42 UTC

1 62752C 25014T   26257.90465278 -.00014313  00000+0 -51847-3 0  2575
2 62752  43.0016 166.2061 0001455 264.4328 349.5397 15.27583009    15

AllMySatでSTARLINK-32756をリアルタイム追跡

Download on the App Store